| time (UTC) | temp F | wind direction | speed MPH | gust MPH | rain 1hr in | rain 24hr in | rain mn in | humidity % | barometer mb |
| 20260506090025 | 45 | 294 | 0.0 | 0.0 | 0.00 | 0.00 | 0.00 | 88 | 1016.9 |
| 20260506084525 | 45 | 294 | 0.0 | 0.0 | 0.00 | 0.00 | 0.00 | 88 | 1016.9 |
| 20260506083023 | 45 | 294 | 0.0 | 0.0 | 0.00 | 0.00 | 0.00 | 88 | 1016.9 |
| 20260506081521 | 46 | 294 | 0.0 | 0.0 | 0.00 | 0.00 | 0.00 | 87 | 1016.8 |
| 20260506073015 | 47 | 294 | 0.0 | 0.0 | 0.00 | 0.00 | 0.00 | 86 | 1016.7 |
| 20260506071512 | 47 | 294 | 0.0 | 0.0 | 0.00 | 0.00 | 0.00 | 86 | 1016.5 |
| 20260506061508 | 49 | 294 | 0.0 | 0.0 | 0.00 | 0.00 | 0.00 | 84 | 1015.8 |
| 20260506044613 | 53 | 240 | 0.0 | 0.0 | 0.00 | 0.00 | 0.00 | 81 | 1015.1 |
| 20260506043056 | 53 | 230 | 0.0 | 0.0 | 0.00 | 0.00 | 0.00 | 80 | 1015.0 |
| 20260506041606 | 54 | 286 | 0.0 | 0.0 | 0.00 | 0.00 | 0.00 | 80 | 1014.7 |
| 20260506040056 | 54 | 289 | 0.0 | 0.0 | 0.00 | 0.00 | 0.00 | 79 | 1014.5 |
| 20260506034550 | 55 | 289 | 0.0 | 0.0 | 0.00 | 0.00 | 0.00 | 77 | 1014.3 |
| 20260506033052 | 55 | 93 | 0.0 | 0.0 | 0.00 | 0.00 | 0.00 | 77 | 1014.0 |
| 20260506031548 | 56 | 166 | 0.0 | 0.0 | 0.00 | 0.00 | 0.00 | 76 | 1013.7 |
| 20260506030045 | 56 | 261 | 0.0 | 0.0 | 0.00 | 0.00 | 0.00 | 75 | 1013.5 |
| 20260506024545 | 56 | 190 | 0.0 | 0.0 | 0.00 | 0.00 | 0.00 | 75 | 1013.3 |
| 20260506023053 | 57 | 203 | 0.0 | 2.0 | 0.00 | 0.00 | 0.00 | 76 | 1013.1 |
| 20260506021544 | 57 | 246 | 0.0 | 3.0 | 0.00 | 0.00 | 0.00 | 75 | 1012.9 |
| 20260506020111 | 57 | 244 | 0.0 | 6.0 | 0.00 | 0.00 | 0.00 | 75 | 1012.8 |
| 20260506014544 | 58 | 322 | 0.0 | 5.0 | 0.00 | 0.00 | 0.00 | 73 | 1012.9 |
| 20260506013043 | 59 | 252 | 0.0 | 1.0 | 0.00 | 0.00 | 0.00 | 72 | 1012.8 |
| 20260506011547 | 59 | 246 | 0.0 | 6.0 | 0.00 | 0.00 | 0.00 | 70 | 1012.8 |
| 20260506010042 | 60 | 205 | 0.0 | 2.0 | 0.00 | 0.00 | 0.00 | 68 | 1012.8 |
| 20260506004544 | 60 | 252 | 0.0 | 5.0 | 0.00 | 0.00 | 0.00 | 68 | 1012.8 |
| 20260506003041 | 60 | 245 | 0.0 | 5.0 | 0.00 | 0.00 | 0.00 | 68 | 1012.8 |
| 20260506001547 | 61 | 252 | 2.0 | 11.0 | 0.00 | 0.00 | 0.00 | 67 | 1012.8 |
| 20260506000055 | 62 | 236 | 1.0 | 6.0 | 0.00 | 0.00 | 0.00 | 66 | 1012.7 |
| 20260505234543 | 63 | 223 | 0.0 | 6.0 | 0.00 | 0.00 | 0.00 | 67 | 1012.7 |
| 20260505233040 | 63 | 200 | 2.0 | 7.0 | 0.00 | 0.00 | 0.00 | 64 | 1012.8 |
| 20260505231538 | 64 | 209 | 1.0 | 6.0 | 0.00 | 0.00 | 0.00 | 64 | 1012.8 |
| 20260505230045 | 64 | 229 | 0.0 | 6.0 | 0.00 | 0.00 | 0.00 | 63 | 1012.8 |
| 20260505224545 | 65 | 300 | 0.0 | 7.0 | 0.00 | 0.00 | 0.00 | 62 | 1013.0 |
| 20260505223039 | 65 | 219 | 1.0 | 6.0 | 0.00 | 0.00 | 0.00 | 62 | 1013.0 |
| 20260505221544 | 64 | 244 | 0.0 | 4.0 | 0.00 | 0.00 | 0.00 | 62 | 1013.1 |
| 20260505220034 | 65 | 200 | 1.0 | 6.0 | 0.00 | 0.00 | 0.00 | 60 | 1013.3 |
| 20260505214533 | 65 | 232 | 1.0 | 5.0 | 0.00 | 0.00 | 0.00 | 61 | 1013.4 |
| 20260505213032 | 64 | 205 | 0.0 | 6.0 | 0.00 | 0.00 | 0.00 | 63 | 1013.6 |
| 20260505211545 | 64 | 199 | 0.0 | 6.0 | 0.00 | 0.00 | 0.00 | 61 | 1013.7 |
| 20260505210030 | 64 | 190 | 1.0 | 5.0 | 0.00 | 0.00 | 0.00 | 61 | 1013.6 |
| 20260505204527 | 62 | 244 | 1.0 | 8.0 | 0.00 | 0.00 | 0.00 | 64 | 1013.7 |
| 20260505203029 | 63 | 211 | 0.0 | 8.0 | 0.00 | 0.00 | 0.00 | 64 | 1013.7 |
| 20260505201525 | 62 | 200 | 3.0 | 8.0 | 0.00 | 0.00 | 0.00 | 66 | 1013.7 |
| 20260505200025 | 63 | 315 | 0.0 | 4.0 | 0.00 | 0.00 | 0.00 | 64 | 1013.7 |
| 20260505194523 | 62 | 215 | 0.0 | 6.0 | 0.00 | 0.00 | 0.00 | 65 | 1013.7 |
| 20260505193022 | 62 | 212 | 0.0 | 1.0 | 0.00 | 0.00 | 0.00 | 64 | 1013.7 |
| 20260505191525 | 62 | 221 | 0.0 | 4.0 | 0.00 | 0.00 | 0.00 | 64 | 1013.7 |
| 20260505190021 | 63 | 245 | 0.0 | 4.0 | 0.00 | 0.00 | 0.00 | 61 | 1013.7 |
| 20260505184523 | 63 | 213 | 0.0 | 4.0 | 0.00 | 0.00 | 0.00 | 61 | 1013.6 |
| 20260505183022 | 63 | 216 | 0.0 | 3.0 | 0.00 | 0.00 | 0.00 | 60 | 1013.5 |
| 20260505181521 | 63 | 111 | 0.0 | 1.0 | 0.00 | 0.00 | 0.00 | 60 | 1013.5 |
| 20260505180015 | 62 | 171 | 0.0 | 0.0 | 0.00 | 0.00 | 0.00 | 64 | 1013.5 |
| 20260505174515 | 61 | 182 | 0.0 | 6.0 | 0.00 | 0.00 | 0.00 | 63 | 1013.5 |
| 20260505173011 | 61 | 155 | 0.0 | 3.0 | 0.00 | 0.00 | 0.00 | 63 | 1013.4 |
| 20260505171516 | 60 | 177 | 0.0 | 2.0 | 0.00 | 0.00 | 0.00 | 66 | 1013.6 |
| 20260505170005 | 59 | 355 | 0.0 | 3.0 | 0.00 | 0.00 | 0.00 | 66 | 1013.7 |
| 20260505164501 | 57 | 182 | 0.0 | 0.0 | 0.00 | 0.00 | 0.00 | 70 | 1013.7 |
| 20260505163057 | 56 | 108 | 0.0 | 0.0 | 0.00 | 0.00 | 0.00 | 72 | 1013.7 |
| 20260505161553 | 55 | 63 | 0.0 | 1.0 | 0.00 | 0.00 | 0.00 | 75 | 1013.6 |
| 20260505153045 | 52 | 108 | 0.0 | 0.0 | 0.00 | 0.00 | 0.00 | 84 | 1013.5 |
| 20260505151541 | 52 | 105 | 0.0 | 0.0 | 0.00 | 0.00 | 0.00 | 85 | 1013.3 |
| 20260505124517 | 49 | 211 | 0.0 | 0.0 | 0.00 | 0.00 | 0.00 | 86 | 1012.7 |
| 20260505123017 | 49 | 211 | 0.0 | 0.0 | 0.00 | 0.00 | 0.00 | 86 | 1012.8 |
| 20260505121514 | 50 | 211 | 0.0 | 0.0 | 0.00 | 0.00 | 0.00 | 86 | 1012.5 |
| 20260505120014 | 50 | 211 | 0.0 | 0.0 | 0.00 | 0.00 | 0.00 | 86 | 1012.5 |
| 20260505114513 | 50 | 24 | 0.0 | 0.0 | 0.00 | 0.00 | 0.00 | 86 | 1012.6 |
| 20260505113014 | 50 | 24 | 0.0 | 0.0 | 0.00 | 0.00 | 0.00 | 86 | 1012.5 |
| 20260505111514 | 50 | 24 | 0.0 | 0.0 | 0.00 | 0.00 | 0.00 | 86 | 1012.7 |
| 20260505101509 | 50 | 24 | 0.0 | 0.0 | 0.00 | 0.00 | 0.00 | 85 | 1012.6 |
| 20260505100008 | 51 | 5 | 0.0 | 1.0 | 0.00 | 0.00 | 0.00 | 85 | 1012.4 |
| 20260505094507 | 51 | 193 | 0.0 | 0.0 | 0.00 | 0.00 | 0.00 | 85 | 1012.6 |
| 20260505091504 | 51 | 250 | 0.0 | 0.0 | 0.00 | 0.00 | 0.00 | 85 | 1012.9 |